map of GOJ home
Great Circle Mapper logo
GOJ - Airport
Location
City:  Nizhniy Novgorod, Russian Federation (Russia)
Name:Strigino
ICAO / IATA:UWGG / GOJ

Details
Type:Airport (Aerodrome, Airfield)
Use:Public/Civil
Latitude:5613'48"N (56.230119)
Longitude:4347'03"E (43.784042)
Datum:WGS 1984
Elevation:256 ft (78 m)
Variation:12.39E (WMM2015 magnetic declination)
0.12 annual change
Runways:4
Longest:9203 × 148 ft (2805 × 45 m), paved

Time
Time Zone:UTC+3 (DST+4)

Weather
METAR:UWGG 310800Z 14005MPS 7000 -SHSN OVC010CB M05/M06 Q1012 TEMPO 0800 +SHSN FZRA OVC005 18490330 RMK QFE752
TAF:UWGG 310756Z 3109/0109 14007G14MPS 2100 -SHSN BLSN BKN007 SCT012CB 670000 530003
TEMPO 3109/0103 0900 +SHSN FZRA

Related Locations
Nearby:
Farthest:CHT: 10486 mi / 16875 km
Waitangi [Tuuta], Chatham Islands, NZ

Find:

   beyond  
but within

Other Information
Maps:
NOTAMs:
Links:
Sources:

  
flag of Russian Federation (Russia)   

Sectional Chart

Flight Planning
at skyvector.com

Satellite Image

Google Maps Satellite View

 

Copyright © 2004-2015 Karl L. Swartz. All rights reserved.
The Great Circle Mapper name and logo are trademarks of the Great Circle Mapper.
All other trademarks mentioned herein belong to their respective owners.
Please see credits for attibutions and further copyright information.

  Follow gcmap on Facebook Follow gcmap on Twitter

hCard Microformat

Geo Microformat